Погода в Щепкине

Россия / Ростовская область     47°22′35″N   39°47′36″E
темп.,
°C
ветер,
м/с
пор.,
м/с
влажн.,
%
обл.,
%
осадки,
мм/ч
давл.,
гПа
погр.,
м
27 января, ср
ср2700:00+3юв51286100 0.0 1015279
03:00+2вюв3484100 0.0 101387
06:00+2вюв4786100 0.0 1012131
09:00+3юв61286100 0.1 1011230
12:00+4вюв61179100 0.0 1011357
15:00+5вюв71183100 0.0 1009266
18:00+3в81489100 0.0 1008358
21:00+3вюв71492100 0.0 1007496
28 января, чт
чт2800:00+2вюв71392100 0.0 1006398
03:00+2вюв61297100 0.0 1005342
06:00+2в71295100 0.0 1004345
09:00+2вюв5893100 0.0 1006360
12:00+4юв4788100 0.0 1006347
15:00+6юв3684100 0.0 1006291
18:00+5ююз2296100 2.3 100757
21:00+5юз51188100 4.3 1008481
29 января, пт
пт2900:00+3юз51378100 0.0 1009459
03:00+2ююз41083100 0.0 1009264
06:00+1ююз5128667 0.0 1009352
09:00+2ююз6147933 0.0 1008769
12:00+4ююз10167459 0.1 10071509
15:00+2юз10169280 1.0 10061199
18:00+2юз71584100 0.1 10071156
21:00+2ююз81589100 0.1 1007762
30 января, сб
сб3000:00+3ююз101881100 0.1 10051070
03:00+3юз121994100 1.2 10051129
06:00+3юз111992100 2.9 10041034
09:00+3юз101794100 4.9 1005846
12:00+4юз81591100 1.6 1005835
15:00+6юз31181100 2.0 10041025
18:00+5ююз41276100 0.0 1004352
21:00+5юв51177100 0.2 1003292
31 января, вс
вс3100:00+4ююв51371100 0.0 1002308
03:00+3юв51283100 0.0 1001329
06:00+3ююв5984100 0.2 1000263
09:00+4ю51192100 1.1 1002385
12:00+6юз7118498 0.3 1004583
15:00+6юз698499 0.3 1006512
18:00+3юз4792100 0.0 1008183
21:00+4юз3691100 0.0 1009157